Location: Newark
(50.8086°N, 4.3114°E)
Time: 13:49:57
(UTC+00:00)

XW-2D - Visible Passes

Search period start: 21 January 2020 00:00
Search period end: 31 January 2020 00:00
Orbit: 508 x 527 km, 97.5° (Epoch: 21 January)

Date Brightness Start Highest point End Pass type
(mag) Time Alt. Az. Time Alt. Az. Time Alt. Az.
21 Jan ? 05:12:05 10° NNE 05:15:28 31° E 05:18:49 10° SSE visible
21 Jan ? 06:46:21 10° N 06:49:29 26° WNW 06:52:35 10° WSW visible
21 Jan ? 17:31:31 10° SSW 17:34:44 26° W 17:37:57 10° NW visible
22 Jan ? 04:58:06 10° NE 05:01:07 22° E 05:04:05 10° SSE visible
22 Jan ? 06:31:53 10° N 06:35:19 35° WNW 06:38:43 10° SW visible
22 Jan ? 17:16:53 10° SSW 17:20:24 35° W 17:23:56 10° NNW visible
23 Jan ? 04:44:19 10° NE 04:46:44 16° E 04:49:08 10° SE visible
23 Jan ? 06:17:29 10° N 06:21:07 49° WNW 06:24:43 10° SW visible
23 Jan ? 17:02:23 10° S 17:06:06 51° W 17:09:48 10° NNW visible
24 Jan ? 04:30:56 10° ENE 04:32:19 12° E 04:33:41 10° ESE visible
24 Jan ? 06:03:09 10° N 06:06:54 71° WNW 06:10:36 10° SSW visible
25 Jan ? 05:48:53 10° NNE 05:52:39 80° ESE 05:56:23 10° S visible
25 Jan ? 18:11:04 10° WSW 18:12:10 11° W 18:13:15 10° WNW visible
26 Jan ? 05:34:40 10° NNE 05:38:23 55° E 05:42:01 10° S visible
26 Jan ? 17:55:27 10° SW 17:57:45 15° W 18:00:03 10° NW visible
27 Jan ? 05:20:32 10° NNE 05:24:04 38° E 05:27:33 10° SSE visible
27 Jan ? 17:40:26 10° SW 17:43:21 21° W 17:46:18 10° NW visible
28 Jan ? 05:06:29 10° NE 05:09:43 27° E 05:12:56 10° SSE visible
28 Jan ? 06:40:33 10° N 06:43:48 29° WNW 06:47:02 10° SW visible
28 Jan ? 17:25:40 10° SSW 17:29:00 29° W 17:32:20 10° NNW visible
29 Jan ? 04:52:34 10° NE 04:55:21 20° E 04:58:07 10° SE visible
29 Jan ? 06:26:07 10° N 06:29:37 40° WNW 06:33:07 10° SW visible
29 Jan ? 17:11:05 10° S 17:14:40 41° W 17:18:15 10° NNW visible
30 Jan ? 04:38:52 10° NE 04:40:57 14° E 04:43:01 10° ESE visible
30 Jan ? 06:11:44 10° N 06:15:25 57° WNW 06:19:04 10° SSW visible
